Wind_Speed
37 40 42 45 48 50 53 56 58 60 60 61 64 65 68 72 74 74 73 69 71 68 68 76 73 63 68 75 72 76 82 93 97 107 94 80 57 45 36 31 27 27 32
43 46 49 51 52 54 56 58 62 65 66 69 70 69 73 75 74 73 67 76 69 76 84 75 58 63 69 72 76 78 88 98 101 102 86 69 50 39 32 25 22 20 25
50 51 53 55 57 58 61 63 65 67 70 71 74 76 79 75 75 63 75 71 81 76 70 58 59 66 74 75 79 82 93 102 102 95 80 57 42 32 25 21 19 18 19
51 55 57 59 61 63 65 68 70 73 75 75 78 79 80 75 73 77 73 81 76 67 56 63 68 70 72 77 81 82 95 102 100 89 72 48 33 23 12 7 6 7 10
56 59 62 64 66 68 69 72 74 78 81 82 83 85 79 81 82 79 76 67 66 52 57 64 73 74 72 79 88 91 99 102 91 84 59 40 25 11 4 7 6 7 10
63 65 68 69 70 73 75 78 81 83 84 84 85 83 80 78 75 65 59 65 54 58 63 65 65 77 78 87 94 92 96 90 81 74 48 29 14 10 9 14 9 9 8
65 68 71 74 76 78 80 82 83 82 81 80 77 72 64 65 62 69 68 57 53 51 54 67 68 76 81 86 91 94 97 80 77 58 38 12 11 11 10 11 8 6 12
69 72 75 77 81 82 82 80 76 72 70 67 62 61 59 59 56 65 75 62 54 61 64 72 73 75 85 93 97 88 89 80 70 44 19 12 11 3 6 4 7 12 15
74 76 78 79 78 73 72 69 66 65 65 68 62 65 68 65 59 70 49 51 59 68 75 80 74 81 95 98 95 91 84 73 56 24 14 9 5 4 3 5 8 18 24
73 72 72 68 63 60 60 60 61 60 59 65 64 67 60 51 49 42 48 57 63 62 73 74 80 89 94 96 89 89 80 69 30 20 10 10 8 4 5 5 13 22 19
56 55 54 56 57 58 60 58 57 58 58 63 63 55 43 36 40 48 56 55 64 68 71 79 83 92 101 93 89 87 73 61 18 24 16 15 13 8 1 5 10 14 15
47 48 50 54 57 56 58 60 57 58 57 52 50 33 39 40 43 51 60 65 68 74 76 83 91 97 95 88 89 83 69 48 19 29 19 17 17 9 8 5 4 4 14
40 44 48 48 50 52 54 54 51 51 46 35 33 39 45 48 55 52 59 65 71 78 84 88 92 96 90 86 84 78 66 37 20 34 24 25 18 13 10 8 5 8 5
42 46 49 51 53 54 54 50 49 50 45 40 44 45 47 52 57 60 65 72 77 80 82 86 85 88 88 84 81 73 50 28 18 35 31 33 27 14 11 12 9 7 4
46 48 51 55 53 55 55 55 51 48 46 49 48 53 56 59 64 65 69 74 77 75 75 78 82 85 81 76 75 63 36 24 19 36 37 37 34 25 17 16 12 11 6
49 50 52 56 56 57 54 56 54 54 53 55 58 62 64 65 67 62 58 61 68 72 75 78 83 83 76 73 66 46 32 20 21 34 39 39 39 32 24 23 20 17 14
53 52 53 55 59 56 55 56 54 55 58 57 60 59 60 60 59 58 62 67 71 73 80 81 85 78 74 66 49 38 25 18 21 27 38 40 45 38 35 27 26 25 23
56 58 57 57 57 58 60 61 56 57 58 57 60 61 63 62 61 63 69 72 74 78 86 85 83 76 67 49 38 28 19 17 21 27 30 38 41 48 41 34 29 29 28
57 59 61 62 62 59 58 61 59 59 59 62 64 65 64 64 66 69 73 73 75 84 88 86 78 70 51 38 31 24 18 18 22 27 27 37 43 44 46 38 33 29 30
60 60 63 65 63 59 58 61 62 65 62 62 65 67 69 68 68 72 73 77 83 86 86 79 73 56 42 34 27 20 17 19 21 27 33 33 41 48 45 43 41 38 34
63 64 65 66 63 58 62 62 62 64 67 68 71 70 69 69 71 76 79 85 85 82 83 73 61 48 38 30 24 17 17 19 20 23 34 35 36 44 51 50 48 46 42
67 67 67 63 64 61 63 62 63 66 70 69 73 70 68 69 74 81 84 78 82 81 72 67 51 42 34 26 20 18 19 21 21 20 24 33 41 38 43 52 56 54 51
70 69 68 67 63 64 66 67 66 68 73 73 76 75 70 71 84 87 76 79 85 73 72 56 44 37 31 24 20 19 19 22 23 23 24 26 34 45 45 44 50 56 59
70 69 63 65 67 70 71 67 66 71 72 76 77 71 74 87 91 75 80 86 81 72 56 43 37 31 28 24 24 25 26 30 30 29 28 28 28 33 45 53 53 53 58
72 72 69 68 69 72 69 68 70 71 74 74 70 79 87 92 76 77 83 81 72 59 46 39 33 30 29 28 29 29 28 27 27 28 29 30 30 32 33 38 45 58 57
73 72 73 75 73 71 69 72 72 73 76 74 79 87 82 76 79 83 80 69 61 49 40 33 30 29 30 31 31 30 30 31 31 30 29 29 28 29 30 32 35 39 45
Wind_Direction
302 303 305 307 310 314 317 318 318 318 319 319 319 321 321 322 325 325 325 324 322 319 321 317 320 323 325 326 328 329 323 330 333 332 328 323 316 309 304 287 270 254 239
299 302 306 309 311 313 313 313 314 315 317 316 317 318 319 322 324 323 318 325 318 323 322 320 320 323 323 324 324 324 325 329 329 329 326 322 318 311 294 282 274 258 249
300 303 305 307 308 308 310 311 311 312 312 314 315 317 319 319 320 320 317 318 319 320 322 323 326 327 324 326 327 323 325 327 330 329 328 322 318 314 302 280 270 257 261
299 300 301 303 305 306 307 308 309 310 310 312 313 314 316 316 314 315 317 314 320 313 317 322 327 326 323 325 320 323 326 327 329 329 328 325 316 316 300 287 260 313 296
297 298 300 301 302 304 305 306 308 308 310 312 312 313 313 313 312 311 317 320 322 318 318 320 323 321 321 319 322 322 324 325 329 329 327 321 312 306 234 161 121 281 289
297 298 299 301 301 303 304 307 307 309 308 309 310 310 310 311 313 313 315 325 316 312 313 324 315 315 315 320 324 321 322 329 330 331 324 316 294 226 196 199 224 222 274
294 295 297 300 301 303 304 305 305 306 306 307 307 309 314 314 318 320 317 315 312 315 324 320 312 316 320 322 322 323 327 332 332 330 320 289 233 236 202 222 288 266 263
291 294 296 298 300 301 303 304 305 306 306 307 308 312 316 317 316 305 312 308 304 319 316 317 316 319 321 321 326 330 332 333 332 327 304 255 235 293 322 267 285 287 284
296 296 297 299 301 302 304 304 306 308 306 306 307 309 310 309 306 312 312 307 313 322 320 318 314 319 323 325 328 330 333 332 330 307 282 223 164 344 318 302 288 314 298
296 296 297 299 302 305 306 306 305 308 308 305 306 306 308 308 309 309 325 318 317 317 319 320 317 319 323 327 328 331 331 332 317 274 248 211 158 246 233 307 342 340 339
296 301 303 303 305 306 308 306 305 305 300 301 306 305 308 308 307 314 313 312 313 316 312 314 320 321 322 325 327 330 330 330 282 256 235 226 218 179 202 313 346 11 24
300 300 302 306 310 312 309 308 306 304 304 304 299 290 290 300 308 316 312 310 310 309 309 313 315 319 322 324 326 327 328 323 279 243 231 218 229 166 214 265 326 29 50
306 311 316 320 318 315 313 312 312 309 305 299 292 301 302 303 311 317 312 310 309 309 309 315 317 318 320 323 324 325 325 316 286 230 225 215 229 207 189 267 278 314 114
311 313 318 324 327 325 322 320 320 321 312 304 301 300 302 301 304 310 310 308 312 313 315 314 317 317 321 323 323 324 321 308 275 219 226 215 222 224 194 218 250 279 6
305 313 317 319 329 336 333 325 322 322 308 312 313 314 314 317 317 312 306 303 307 311 314 317 321 322 324 323 322 322 315 299 259 217 225 217 219 217 203 213 228 229 256
308 311 316 321 322 332 337 329 321 318 313 314 314 314 315 314 315 316 318 317 318 319 323 323 321 323 323 322 320 318 310 282 246 221 225 222 221 217 221 223 229 229 248
306 309 313 317 320 326 332 333 321 313 315 315 315 317 318 317 318 318 318 318 320 322 326 326 325 325 324 320 317 314 300 269 240 228 226 227 219 227 228 233 226 233 247
304 307 311 314 317 320 324 331 324 320 317 316 316 316 316 317 319 319 320 321 322 323 326 324 326 326 323 318 315 308 293 265 247 235 229 231 230 226 232 233 233 233 242
300 305 309 312 314 315 321 328 320 318 317 314 314 316 316 318 317 317 321 320 321 323 325 326 327 325 321 318 311 301 283 266 249 233 236 230 232 233 232 229 222 225 234
299 302 306 310 310 314 315 323 321 321 322 324 321 316 317 317 316 319 319 319 320 322 323 324 326 323 320 312 306 293 280 271 262 245 236 237 235 235 233 232 233 229 231
298 300 304 309 309 311 314 315 316 316 317 322 326 320 316 317 318 318 319 319 320 323 324 324 324 320 315 307 301 296 286 283 278 266 246 237 238 237 234 237 239 236 239
296 299 304 305 307 308 314 312 310 311 310 316 322 322 319 322 321 319 320 323 324 324 325 324 321 317 310 306 298 297 292 283 277 274 268 252 240 240 238 237 238 243 244
295 300 304 305 305 307 312 313 313 310 312 315 318 317 317 317 319 319 321 321 325 324 322 320 316 312 308 303 291 284 293 302 296 287 280 266 255 244 240 239 239 242 241
294 299 299 302 304 305 312 312 307 307 308 310 314 315 314 318 319 319 320 322 324 323 320 316 312 307 304 299 296 297 296 297 290 285 281 271 263 256 249 245 243 243 243
296 298 299 302 303 307 307 306 304 307 309 310 309 312 314 315 318 318 320 322 321 320 318 315 310 309 306 303 298 295 293 293 291 288 283 275 267 261 258 254 253 249 247
294 296 298 302 306 305 303 304 304 305 307 308 311 313 317 318 320 320 323 320 320 317 315 314 313 312 306 301 299 297 295 295 295 294 289 280 272 268 264 262 259 258 257
Height
10982 10979 10977 10973 10970 10966 10961 10956 10949 10944 10942 10937 10929 10923 10916 10908 10900 10893 10882 10877 10864 10855 10844 10835 10822 10807 10797 10788 10778 10768 10754 10740 10728 10708 10689 10674 10662 10654 10648 10643 10644 10647 10650
10975 10972 10968 10966 10963 10958 10954 10949 10941 10934 10927 10920 10915 10913 10905 10898 10888 10879 10872 10865 10851 10838 10826 10816 10804 10792 10785 10776 10765 10754 10740 10723 10711 10695 10674 10658 10646 10640 10637 10632 10633 10637 10637
10968 10965 10961 10958 10954 10949 10944 10938 10933 10926 10917 10912 10902 10896 10892 10885 10876 10869 10861 10846 10836 10820 10811 10800 10790 10784 10773 10763 10751 10741 10726 10710 10693 10675 10660 10646 10635 10630 10628 10625 10626 10628 10629
10964 10958 10953 10950 10945 10939 10933 10927 10920 10912 10905 10900 10892 10886 10880 10871 10862 10851 10844 10832 10820 10808 10796 10786 10778 10770 10760 10749 10738 10729 10714 10698 10680 10658 10645 10635 10625 10621 10621 10622 10624 10625 10626
10952 10948 10942 10939 10934 10929 10922 10914 10907 10898 10889 10881 10874 10868 10861 10854 10843 10835 10825 10814 10806 10796 10785 10775 10764 10757 10748 10737 10726 10714 10702 10687 10667 10648 10634 10626 10620 10617 10619 10620 10620 10623 10624
10940 10936 10930 10924 10921 10914 10908 10899 10891 10883 10874 10866 10860 10851 10844 10835 10828 10819 10809 10803 10793 10784 10774 10764 10754 10746 10734 10722 10713 10701 10692 10679 10657 10638 10627 10620 10617 10616 10619 10619 10618 10619 10622
10930 10923 10918 10911 10904 10899 10893 10885 10877 10869 10860 10852 10845 10837 10830 10820 10815 10806 10802 10796 10786 10777 10766 10761 10748 10735 10723 10711 10699 10686 10674 10657 10642 10628 10620 10617 10616 10617 10619 10620 10621 10621 10620
10918 10913 10906 10899 10891 10884 10878 10870 10862 10854 10846 10839 10831 10824 10815 10808 10805 10800 10791 10784 10777 10769 10756 10747 10737 10724 10711 10700 10685 10668 10656 10644 10630 10621 10617 10616 10616 10618 10619 10619 10620 10619 10616
10901 10895 10888 10883 10876 10869 10862 10855 10847 10840 10832 10821 10818 10812 10805 10799 10796 10788 10780 10769 10765 10756 10744 10734 10722 10711 10698 10688 10672 10657 10644 10634 10622 10617 10615 10618 10618 10619 10619 10619 10617 10614 10610
10884 10878 10873 10867 10861 10856 10849 10843 10837 10829 10820 10810 10806 10801 10793 10787 10784 10777 10766 10759 10754 10746 10734 10723 10714 10702 10688 10675 10661 10647 10634 10625 10616 10614 10615 10616 10617 10617 10617 10618 10615 10610 10604
10870 10867 10862 10856 10850 10843 10837 10830 10822 10816 10809 10800 10794 10786 10780 10776 10771 10763 10756 10748 10741 10734 10722 10712 10700 10688 10676 10662 10650 10639 10627 10617 10612 10611 10613 10614 10614 10614 10615 10616 10615 10610 10605
10863 10858 10853 10848 10842 10834 10825 10818 10810 10803 10796 10789 10783 10774 10768 10765 10760 10752 10745 10737 10730 10720 10710 10699 10689 10676 10666 10651 10640 10629 10619 10610 10607 10605 10610 10611 10611 10611 10614 10615 10614 10611 10608
10853 10849 10843 10838 10831 10824 10817 10808 10799 10792 10785 10779 10773 10768 10763 10758 10750 10744 10737 10728 10718 10709 10697 10686 10675 10664 10653 10641 10628 10617 10607 10600 10598 10600 10605 10607 10608 10609 10610 10612 10612 10612 10610
10843 10839 10835 10829 10822 10815 10806 10797 10790 10782 10776 10771 10765 10761 10754 10747 10742 10734 10727 10718 10706 10696 10685 10675 10665 10653 10638 10624 10613 10605 10596 10590 10589 10592 10597 10601 10604 10605 10606 10609 10610 10610 10610
10833 10829 10825 10819 10812 10804 10796 10788 10781 10775 10769 10763 10757 10753 10745 10738 10733 10725 10715 10705 10695 10685 10675 10664 10651 10637 10623 10611 10600 10593 10586 10581 10581 10585 10588 10592 10597 10600 10602 10605 10607 10607 10608
10821 10817 10813 10808 10801 10795 10788 10781 10772 10765 10758 10754 10747 10740 10734 10724 10717 10710 10701 10691 10682 10671 10660 10650 10637 10624 10611 10598 10588 10581 10576 10573 10573 10577 10580 10586 10591 10595 10598 10600 10601 10603 10604
10810 10806 10802 10797 10791 10785 10778 10771 10764 10755 10749 10741 10734 10727 10722 10715 10707 10698 10690 10680 10671 10661 10650 10635 10621 10607 10596 10586 10576 10571 10567 10565 10566 10569 10572 10577 10583 10588 10591 10594 10596 10598 10599
10799 10795 10790 10784 10779 10775 10768 10761 10751 10744 10739 10731 10725 10718 10712 10705 10696 10687 10680 10669 10656 10645 10636 10621 10607 10594 10583 10573 10567 10563 10560 10559 10560 10563 10566 10570 10574 10578 10582 10586 10588 10591 10593
10788 10783 10778 10773 10767 10762 10756 10749 10739 10734 10729 10722 10715 10707 10698 10690 10682 10674 10667 10656 10644 10630 10617 10605 10591 10581 10572 10565 10560 10557 10554 10554 10554 10556 10558 10561 10564 10569 10573 10577 10579 10582 10585
10775 10772 10766 10761 10754 10750 10744 10740 10728 10719 10715 10710 10703 10693 10685 10678 10668 10660 10652 10641 10632 10620 10605 10592 10580 10570 10563 10559 10555 10550 10548 10547 10548 10548 10550 10552 10555 10559 10563 10566 10570 10573 10576
10761 10758 10753 10746 10739 10736 10728 10721 10718 10709 10699 10696 10689 10681 10673 10665 10654 10646 10640 10627 10616 10604 10591 10578 10569 10561 10556 10552 10547 10544 10542 10542 10541 10540 10541 10544 10546 10548 10551 10556 10560 10563 10566
10746 10743 10738 10733 10727 10723 10719 10713 10707 10697 10686 10685 10677 10668 10660 10654 10643 10632 10624 10612 10600 10588 10576 10566 10558 10553 10549 10544 10540 10538 10536 10535 10534 10533 10533 10533 10536 10537 10540 10543 10546 10550 10555
10728 10725 10721 10716 10710 10706 10701 10697 10692 10684 10673 10667 10665 10655 10647 10639 10630 10617 10607 10596 10585 10572 10563 10555 10548 10544 10540 10536 10533 10531 10529 10528 10526 10525 10524 10524 10523 10526 10528 10530 10532 10535 10539
10714 10712 10709 10703 10695 10692 10689 10683 10678 10672 10665 10656 10650 10640 10632 10623 10613 10602 10592 10581 10569 10560 10549 10544 10539 10536 10532 10528 10526 10523 10521 10519 10517 10516 10515 10514 10514 10513 10514 10517 10519 10521 10524
10695 10691 10690 10687 10686 10678 10673 10669 10663 10658 10650 10644 10636 10629 10620 10611 10599 10589 10579 10567 10555 10546 10540 10535 10530 10526 10522 10520 10517 10515 10512 10511 10508 10506 10505 10503 10503 10503 10502 10503 10504 10506 10508
10678 10676 10671 10665 10666 10664 10658 10654 10649 10643 10636 10631 10623 10615 10605 10596 10586 10575 10563 10552 10543 10535 10529 10526 10522 10518 10515 10512 10509 10506 10504 10501 10498 10495 10493 10491 10490 10491 10491 10492 10493 10493 10494